Location: Castillon
(43.0896°N, 0.2156°E)
Time: 03:03:04
(UTC+00:00)

Cosmos 1980 Rocket - Pass Details

Date: 19 October 2021
Orbit: 828 x 851 km, 71.0° (Epoch: 07 December)

Event Time Altitude Azimuth Distance (km) Brightness Sun altitude
Exits shadow 03:28:21 48° 129° (SE) 1,101 2.9 -31.4°
Drops below altitude 10° 03:32:28 10° 148° (SSE) 2,467 4.8 -30.7°
Sets 03:34:54 0° 150° (SSE) 3,396 5.5 -30.2°
